FW6620 Weather Reports


Display with metric or nautical units.
time (UTC)temp
F
wind
direction
speed
MPH
gust
MPH
rain 1hr
in
rain 24hr
in
rain mn
in
humidity
%
barometer
mb
20260508065048 62 0 0.0 0.0 0.00 0.00 0.00 84 1015.3
20260508064559 62 0 0.0 0.0 0.00 0.00 0.00 84 1015.4
20260508064048 62 0 0.0 0.0 0.00 0.00 0.00 84 1015.4
20260508063548 62 0 0.0 0.0 0.00 0.00 0.00 84 1015.7
20260508063107 62 0 0.0 0.0 0.00 0.00 0.00 84 1015.9
20260508062549 62 0 0.0 0.0 0.00 0.00 0.00 84 1016.1
20260508062048 62 0 0.0 0.0 0.00 0.00 0.00 83 1016.0
20260508061605 62 0 0.0 0.0 0.00 0.00 0.00 83 1015.9
20260508061048 62 0 0.0 0.0 0.00 0.00 0.00 83 1015.9
20260508060547 62 0 0.0 0.0 0.00 0.00 0.00 83 1015.8
20260508060103 62 0 0.0 0.0 0.00 0.00 0.00 82 1015.6
20260508055547 62 0 0.0 0.0 0.00 0.00 0.00 82 1015.4
20260508055047 62 0 0.0 0.0 0.00 0.00 0.00 82 1015.7
20260508054553 62 0 0.0 0.0 0.00 0.00 0.00 82 1015.8
20260508054048 62 0 0.0 0.0 0.00 0.00 0.00 82 1016.0
20260508053548 62 0 0.0 0.0 0.00 0.00 0.00 83 1016.0
20260508053058 62 0 0.0 0.0 0.00 0.00 0.00 82 1015.9
20260508052550 62 0 0.0 0.0 0.00 0.00 0.00 82 1015.7
20260508052046 62 0 0.0 0.0 0.00 0.00 0.00 82 1015.9
20260508051609 62 0 0.0 0.0 0.00 0.00 0.00 82 1015.7
20260508051048 62 0 0.0 0.0 0.00 0.00 0.00 81 1015.4
20260508050550 62 0 0.0 1.0 0.00 0.00 0.00 81 1015.5
20260508050058 62 0 0.0 1.0 0.00 0.00 0.00 82 1015.6
20260508045547 62 0 0.0 1.0 0.00 0.00 0.00 82 1016.1
20260508045047 62 0 0.0 0.0 0.00 0.00 0.00 82 1016.2
20260508044554 62 0 0.0 0.0 0.00 0.00 0.00 83 1016.5
20260508044047 62 0 0.0 0.0 0.00 0.00 0.00 83 1016.0
20260508043549 62 0 0.0 0.0 0.00 0.00 0.00 82 1015.2
20260508043055 62 0 0.0 0.0 0.00 0.00 0.00 82 1015.1
20260508042548 62 0 0.0 0.0 0.00 0.00 0.00 82 1015.5
20260508042048 62 0 0.0 0.0 0.00 0.00 0.00 81 1015.6
20260508041551 62 0 0.0 0.0 0.00 0.00 0.00 81 1015.7
20260508041048 62 0 0.0 0.0 0.00 0.00 0.00 81 1015.8
20260508040547 63 0 0.0 0.0 0.00 0.00 0.00 80 1015.9
20260508040055 63 0 0.0 0.0 0.00 0.00 0.00 81 1016.2
20260508035548 63 0 0.0 0.0 0.00 0.00 0.00 81 1016.0
20260508035048 63 0 0.0 0.0 0.00 0.00 0.00 80 1016.2
20260508034554 63 0 0.0 0.0 0.00 0.00 0.00 80 1016.2
20260508034048 63 0 0.0 0.0 0.00 0.00 0.00 79 1016.3
20260508033547 63 0 0.0 0.0 0.00 0.00 0.00 79 1016.5
20260508033055 63 0 0.0 0.0 0.00 0.00 0.00 79 1017.0
20260508032547 63 0 0.0 0.0 0.00 0.00 0.00 79 1017.1
20260508032048 63 0 0.0 0.0 0.00 0.00 0.00 79 1016.8
20260508031556 63 0 0.0 0.0 0.00 0.00 0.00 79 1016.9
20260508031048 63 0 0.0 0.0 0.00 0.00 0.00 78 1016.8
20260508030548 63 0 0.0 0.0 0.00 0.00 0.00 78 1016.6
20260508030058 64 0 0.0 0.0 0.00 0.00 0.00 78 1016.3
20260508025552 64 0 0.0 0.0 0.00 0.00 0.00 77 1015.9
20260508025048 64 0 0.0 0.0 0.00 0.00 0.00 76 1015.8
20260508024615 64 0 0.0 0.0 0.00 0.00 0.00 76 1015.9
20260508024048 64 0 0.0 0.0 0.00 0.00 0.00 77 1016.0
20260508023548 64 0 0.0 1.0 0.00 0.00 0.00 76 1015.7
20260508023049 64 0 0.0 1.0 0.00 0.00 0.00 75 1015.1
20260508022547 64 0 0.0 1.0 0.00 0.00 0.00 75 1014.4
20260508022048 64 0 0.0 1.0 0.00 0.00 0.00 75 1014.4
20260508021557 64 0 0.0 1.0 0.00 0.00 0.00 74 1014.3
20260508021048 65 0 0.0 1.0 0.00 0.00 0.00 75 1014.5
20260508020548 65 0 0.0 1.0 0.00 0.00 0.00 73 1014.4
20260508020054 65 0 0.0 1.0 0.00 0.00 0.00 73 1014.3
20260508015550 65 0 0.0 2.0 0.00 0.00 0.00 73 1014.4
20260508015048 65 0 0.0 2.0 0.00 0.00 0.00 72 1014.2
20260508014553 65 47 0.0 1.0 0.00 0.00 0.00 72 1014.0
20260508014048 65 0 0.0 1.0 0.00 0.00 0.00 71 1014.2
20260508013550 65 0 0.0 3.0 0.00 0.00 0.00 71 1014.4
20260508013051 65 0 0.0 2.0 0.00 0.00 0.00 70 1014.4
20260508012548 65 0 0.0 2.0 0.00 0.00 0.00 71 1014.5
20260508012048 66 0 0.0 0.0 0.00 0.00 0.00 70 1014.7
20260508011556 66 0 0.0 1.0 0.00 0.00 0.00 71 1014.9
20260508011047 66 0 0.0 2.0 0.00 0.00 0.00 70 1015.1
20260508010547 66 0 0.0 2.0 0.00 0.00 0.00 70 1014.8
20260508010057 66 46 0.0 2.0 0.00 0.00 0.00 68 1014.5
20260508005551 66 0 0.0 2.0 0.00 0.00 0.00 68 1014.2
20260508005047 66 0 0.0 2.0 0.00 0.00 0.00 68 1014.9
20260508004600 67 0 0.0 2.0 0.00 0.00 0.00 67 1014.4
20260508004048 67 0 0.0 2.0 0.00 0.00 0.00 67 1015.1
20260508003547 67 44 0.0 2.0 0.00 0.00 0.00 67 1015.1
20260508003055 67 44 0.0 1.0 0.00 0.00 0.00 69 1015.1
20260508002548 67 45 0.0 2.0 0.00 0.00 0.00 68 1015.1
20260508002047 67 0 0.0 2.0 0.00 0.00 0.00 69 1015.6
20260508001551 67 0 0.0 2.0 0.00 0.00 0.00 67 1015.5
20260508001047 68 45 0.0 2.0 0.00 0.00 0.00 69 1015.4
20260508000547 68 0 0.0 0.0 0.00 0.00 0.00 69 1015.4
20260508000049 68 0 0.0 0.0 0.00 0.00 0.00 69 1015.7
20260507235547 68 0 0.0 2.0 0.00 0.00 0.00 68 1016.0
20260507235048 68 0 0.0 2.0 0.00 0.00 0.00 68 1015.8
20260507234547 68 0 0.0 2.0 0.00 0.00 0.00 66 1016.0
20260507234048 68 0 0.0 2.0 0.00 0.00 0.00 68 1016.1
20260507233548 68 0 0.0 2.0 0.00 0.00 0.00 67 1016.0
20260507233053 68 0 0.0 2.0 0.00 0.00 0.00 67 1016.0
20260507232548 68 0 0.0 2.0 0.00 0.00 0.00 68 1016.0
20260507232048 68 0 0.0 2.0 0.00 0.00 0.00 68 1015.8
20260507231548 68 0 0.0 2.0 0.00 0.00 0.00 70 1016.1
20260507231047 68 0 0.0 1.0 0.00 0.00 0.00 68 1015.8
20260507230550 68 0 0.0 2.0 0.00 0.00 0.00 67 1015.8
20260507230106 68 0 0.0 2.0 0.00 0.00 0.00 70 1016.0
20260507225547 68 45 0.0 1.0 0.00 0.00 0.00 70 1016.1
20260507225047 68 0 0.0 1.0 0.00 0.00 0.00 69 1016.2
20260507224553 68 0 0.0 1.0 0.00 0.00 0.00 68 1016.1
20260507224049 68 0 0.0 2.0 0.00 0.00 0.00 69 1016.2
20260507223547 68 0 0.0 2.0 0.00 0.00 0.00 69 1016.4
20260507223050 68 0 0.0 1.0 0.00 0.00 0.00 71 1016.3
20260507222547 68 0 0.0 1.0 0.00 0.00 0.00 69 1016.7
20260507222048 68 0 0.0 1.0 0.00 0.00 0.00 70 1016.5
20260507221551 68 0 0.0 2.0 0.00 0.00 0.00 68 1016.6
20260507221046 68 0 0.0 2.0 0.00 0.00 0.00 69 1016.5
20260507220546 68 45 0.0 2.0 0.00 0.00 0.00 68 1016.5
20260507220054 68 0 0.0 2.0 0.00 0.00 0.00 67 1016.7
20260507215547 68 44 0.0 2.0 0.00 0.00 0.00 68 1016.4
20260507215047 68 0 0.0 2.0 0.00 0.00 0.00 69 1016.4
20260507214552 68 32 0.0 1.0 0.00 0.00 0.00 68 1016.5
20260507214047 68 0 0.0 1.0 0.00 0.00 0.00 68 1016.5
20260507213547 68 0 0.0 2.0 0.00 0.00 0.00 70 1016.7
20260507213052 68 0 0.0 2.0 0.00 0.00 0.00 66 1016.4
20260507212547 68 32 0.0 2.0 0.00 0.00 0.00 69 1016.3
20260507212048 68 0 0.0 4.0 0.00 0.00 0.00 68 1016.3
20260507211556 68 0 0.0 4.0 0.00 0.00 0.00 70 1016.6
20260507211048 67 32 0.0 2.0 0.00 0.00 0.00 72 1016.6
20260507210550 67 0 0.0 2.0 0.00 0.00 0.00 70 1016.6
20260507205547 66 0 0.0 3.0 0.00 0.00 0.00 71 1016.4
20260507205047 66 0 0.0 3.0 0.00 0.00 0.00 68 1016.4
20260507204551 66 165 1.0 3.0 0.00 0.00 0.00 69 1016.7
20260507204047 66 0 0.0 3.0 0.00 0.00 0.00 69 1016.7
20260507203547 67 164 0.0 2.0 0.00 0.00 0.00 68 1017.3
20260507203113 66 165 0.0 2.0 0.00 0.00 0.00 70 1017.6
20260507202547 66 0 0.0 3.0 0.00 0.00 0.00 71 1017.5
20260507202050 66 165 0.0 3.0 0.00 0.00 0.00 69 1017.6
20260507201550 67 165 0.0 4.0 0.00 0.00 0.00 69 1017.4
20260507201048 67 0 1.0 4.0 0.00 0.00 0.00 68 1017.4
20260507200547 67 170 0.0 3.0 0.00 0.00 0.00 69 1017.6
20260507200053 67 0 0.0 3.0 0.00 0.00 0.00 70 1017.3
20260507195548 67 126 0.0 2.0 0.00 0.00 0.00 73 1017.3
20260507195050 67 0 0.0 3.0 0.00 0.00 0.00 72 1017.9
20260507194602 66 0 0.0 3.0 0.00 0.00 0.00 71 1017.9
20260507194047 66 0 0.0 3.0 0.00 0.00 0.00 72 1017.6
20260507193547 66 0 0.0 3.0 0.00 0.00 0.00 72 1017.5
20260507193058 65 136 0.0 2.0 0.00 0.00 0.00 72 1017.5
20260507192546 65 136 0.0 2.0 0.00 0.00 0.00 73 1018.0
20260507192047 65 0 0.0 2.0 0.00 0.00 0.00 74 1018.0
20260507191551 65 0 0.0 2.0 0.00 0.00 0.00 74 1017.9
20260507191046 65 0 0.0 2.0 0.00 0.00 0.00 74 1018.2
20260507190549 65 0 0.0 2.0 0.00 0.00 0.00 74 1018.1
20260507190057 65 0 0.0 2.0 0.00 0.00 0.00 74 1017.9
20260507185546 65 136 0.0 2.0 0.00 0.00 0.00 75 1017.8
20260507185046 65 0 0.0 3.0 0.00 0.00 0.00 75 1018.1
20260507184550 65 0 0.0 3.0 0.00 0.00 0.00 73 1018.2
20260507184046 65 0 0.0 3.0 0.00 0.00 0.00 73 1018.3
20260507183548 65 0 0.0 2.0 0.00 0.00 0.00 73 1018.5
20260507183050 65 135 0.0 3.0 0.00 0.00 0.00 74 1018.5
20260507182549 65 139 1.0 3.0 0.00 0.00 0.00 74 1018.7
20260507182046 65 0 0.0 3.0 0.00 0.00 0.00 76 1018.4
20260507181549 64 0 0.0 3.0 0.00 0.00 0.00 78 1018.6
20260507181047 64 0 0.0 3.0 0.00 0.00 0.00 76 1018.4
20260507180547 64 134 0.0 3.0 0.00 0.00 0.00 76 1018.2
20260507180048 63 55 0.0 2.0 0.00 0.00 0.00 78 1018.3
20260507175547 63 0 0.0 1.0 0.00 0.00 0.00 77 1018.3
20260507175048 63 0 0.0 4.0 0.00 0.00 0.00 79 1018.2
20260507174602 63 0 0.0 4.0 0.00 0.00 0.00 78 1018.1
20260507174047 63 0 0.0 4.0 0.00 0.00 0.00 78 1018.2
20260507173546 62 0 0.0 3.0 0.00 0.00 0.00 78 1018.5
20260507173128 62 0 0.0 2.0 0.00 0.00 0.00 79 1018.5
20260507172546 62 0 0.0 3.0 0.00 0.00 0.00 79 1018.5
20260507172048 62 0 0.0 3.0 0.00 0.00 0.00 79 1018.4
20260507171559 62 0 0.0 3.0 0.00 0.00 0.00 79 1018.6
20260507171047 62 0 0.0 3.0 0.00 0.00 0.00 79 1018.4
20260507170547 62 122 0.0 3.0 0.00 0.00 0.00 79 1018.4
20260507170054 61 0 0.0 3.0 0.00 0.00 0.00 79 1018.8
20260507165547 61 0 0.0 3.0 0.00 0.00 0.00 80 1019.1
20260507165047 61 0 0.0 2.0 0.00 0.00 0.00 80 1018.9
20260507164557 61 125 0.0 2.0 0.00 0.00 0.00 81 1018.9
20260507164047 61 0 0.0 2.0 0.00 0.00 0.00 81 1018.6
20260507163546 61 0 0.0 3.0 0.00 0.00 0.00 81 1018.9
20260507163051 60 0 0.0 3.0 0.00 0.00 0.00 81 1019.0
20260507162550 60 0 0.0 2.0 0.00 0.00 0.00 81 1019.0
20260507162047 61 0 0.0 2.0 0.00 0.00 0.00 81 1019.0
20260507161602 61 0 0.0 4.0 0.00 0.00 0.00 81 1019.5
20260507161046 61 125 1.0 4.0 0.00 0.00 0.00 83 1019.8
20260507160547 61 152 0.0 2.0 0.00 0.00 0.00 83 1019.7
20260507160101 61 0 0.0 2.0 0.00 0.00 0.00 83 1019.4
20260507155546 61 53 0.0 2.0 0.00 0.00 0.00 83 1019.2
20260507155045 61 0 0.0 2.0 0.00 0.00 0.00 84 1019.2
20260507154556 61 0 0.0 4.0 0.00 0.00 0.00 84 1019.4
20260507154047 61 0 0.0 3.0 0.00 0.00 0.00 84 1019.4
20260507153547 61 0 0.0 2.0 0.00 0.00 0.00 85 1019.5
20260507153057 61 146 0.0 1.0 0.00 0.00 0.00 85 1019.6
20260507152548 61 0 0.0 2.0 0.00 0.00 0.00 85 1019.3
20260507152048 60 0 0.0 2.0 0.00 0.00 0.00 85 1019.4
20260507151552 60 146 0.0 2.0 0.00 0.00 0.00 85 1019.5
20260507151047 60 0 0.0 2.0 0.00 0.00 0.00 85 1019.5
20260507150547 60 0 0.0 2.0 0.00 0.00 0.00 86 1019.2
20260507150054 60 0 0.0 2.0 0.00 0.00 0.00 86 1019.2
20260507145547 60 0 0.0 1.0 0.00 0.00 0.00 86 1019.3
20260507145047 60 0 0.0 1.0 0.00 0.00 0.00 86 1019.3
20260507144600 60 0 0.0 2.0 0.00 0.00 0.00 86 1019.4
20260507144047 60 0 0.0 2.0 0.00 0.00 0.00 85 1019.5
20260507143546 60 153 0.0 2.0 0.00 0.00 0.00 86 1019.6
20260507143100 60 0 0.0 2.0 0.00 0.00 0.00 86 1019.6
20260507142547 60 0 0.0 2.0 0.00 0.00 0.00 86 1019.7
20260507142049 60 0 0.0 2.0 0.00 0.00 0.00 86 1019.3
20260507141601 60 0 0.0 1.0 0.00 0.00 0.00 86 1018.9
20260507141047 60 0 0.0 3.0 0.00 0.00 0.00 87 1018.8
20260507140547 60 0 0.0 3.0 0.00 0.00 0.00 87 1019.0
20260507140050 60 0 0.0 2.0 0.00 0.00 0.00 86 1019.0
20260507135546 60 0 0.0 2.0 0.00 0.00 0.00 87 1019.2
20260507135048 60 0 0.0 3.0 0.00 0.00 0.00 86 1019.1
20260507134553 60 0 0.0 3.0 0.00 0.00 0.00 86 1018.8
20260507134047 60 154 1.0 3.0 0.00 0.00 0.00 86 1018.6
20260507133547 60 0 0.0 3.0 0.00 0.00 0.00 87 1018.5
20260507133134 60 108 0.0 3.0 0.00 0.00 0.00 87 1018.5
20260507132546 60 108 0.0 2.0 0.00 0.00 0.00 87 1018.4
20260507132046 60 0 0.0 2.0 0.00 0.00 0.00 87 1018.3
20260507131554 60 0 0.0 2.0 0.00 0.00 0.00 87 1018.4
20260507131047 60 108 0.0 3.0 0.00 0.00 0.00 87 1018.4
20260507130549 60 108 0.0 3.0 0.00 0.00 0.00 87 1018.5
20260507125549 60 0 0.0 3.0 0.00 0.00 0.00 87 1018.7
20260507125046 60 0 0.0 3.0 0.00 0.00 0.00 87 1018.6
20260507124555 60 0 0.0 3.0 0.00 0.00 0.00 86 1018.5
20260507124048 60 56 0.0 3.0 0.00 0.00 0.00 87 1018.4
20260507123548 60 157 0.0 3.0 0.00 0.00 0.00 86 1018.4
20260507123052 60 0 1.0 3.0 0.00 0.00 0.00 86 1018.2
20260507122548 60 0 0.0 2.0 0.00 0.00 0.00 86 1018.6
20260507122048 60 0 0.0 2.0 0.00 0.00 0.00 87 1018.4
20260507121552 60 0 0.0 2.0 0.00 0.00 0.00 86 1018.2
20260507121047 60 0 0.0 3.0 0.00 0.00 0.00 86 1017.8
20260507120547 60 137 0.0 3.0 0.00 0.00 0.00 86 1017.7
20260507120052 60 137 0.0 3.0 0.00 0.00 0.00 86 1017.7
20260507115547 60 0 0.0 2.0 0.00 0.00 0.00 86 1017.5
20260507115047 60 137 0.0 2.0 0.00 0.00 0.00 86 1017.7
20260507114600 60 0 0.0 2.0 0.00 0.00 0.00 87 1018.0
20260507114047 60 0 0.0 2.0 0.00 0.00 0.00 86 1018.0
20260507113547 60 0 0.0 2.0 0.00 0.00 0.00 86 1017.9
20260507113055 60 0 0.0 2.0 0.00 0.00 0.00 86 1017.6
20260507112547 60 137 0.0 3.0 0.00 0.00 0.00 86 1017.7
20260507112050 60 0 0.0 4.0 0.00 0.00 0.00 86 1017.6
20260507111553 60 0 0.0 4.0 0.00 0.00 0.00 86 1017.5
20260507111048 60 0 1.0 3.0 0.00 0.00 0.00 86 1017.5
20260507110548 60 0 0.0 3.0 0.00 0.00 0.00 86 1017.6
20260507110057 60 0 0.0 3.0 0.00 0.00 0.00 86 1017.4
20260507105545 60 0 0.0 2.0 0.00 0.00 0.00 86 1017.4
20260507105049 60 0 0.0 2.0 0.00 0.00 0.00 86 1017.3
20260507104551 60 0 0.0 2.0 0.00 0.00 0.00 86 1017.7
20260507104046 60 0 0.0 2.0 0.00 0.00 0.00 86 1017.7
20260507103545 60 146 0.0 2.0 0.00 0.00 0.00 86 1017.7
20260507103056 60 146 0.0 2.0 0.00 0.00 0.00 86 1017.6
20260507102547 60 159 0.0 1.0 0.00 0.00 0.00 86 1017.2
20260507102047 61 0 0.0 2.0 0.00 0.00 0.00 86 1016.8
20260507101555 61 0 0.0 5.0 0.00 0.00 0.00 85 1017.2
20260507101050 61 0 0.0 5.0 0.00 0.00 0.00 86 1017.2
20260507100551 61 0 1.0 4.0 0.00 0.00 0.00 85 1017.1
20260507100053 61 0 0.0 2.0 0.00 0.00 0.00 85 1017.1
20260507095547 61 97 0.0 2.0 0.00 0.00 0.00 85 1016.7
20260507095046 61 0 0.0 2.0 0.00 0.00 0.00 85 1016.9
20260507094558 61 0 0.0 2.0 0.00 0.00 0.00 85 1017.0
20260507094045 61 0 0.0 2.0 0.00 0.00 0.00 84 1016.7
20260507093545 61 97 0.0 2.0 0.00 0.00 0.00 85 1016.8
20260507093050 61 97 0.0 2.0 0.00 0.00 0.00 85 1016.7
20260507092545 61 0 0.0 2.0 0.00 0.00 0.00 84 1016.6
20260507092045 61 0 0.0 2.0 0.00 0.00 0.00 84 1016.7
20260507091549 61 0 0.0 2.0 0.00 0.00 0.00 84 1016.9
20260507091047 61 0 0.0 1.0 0.00 0.00 0.00 84 1017.0
20260507090547 61 0 0.0 1.0 0.00 0.00 0.00 84 1016.8
20260507090051 61 0 0.0 1.0 0.00 0.00 0.00 85 1016.6
20260507085546 61 0 0.0 1.0 0.00 0.00 0.00 84 1016.5
20260507085047 61 0 0.0 1.0 0.00 0.00 0.00 84 1016.5
20260507084548 61 0 0.0 1.0 0.00 0.00 0.00 84 1016.4
20260507084046 62 0 0.0 0.0 0.00 0.00 0.00 84 1016.1
20260507083546 61 0 0.0 2.0 0.00 0.00 0.00 84 1016.3
20260507083048 61 0 0.0 2.0 0.00 0.00 0.00 84 1016.4
20260507082545 62 97 0.0 1.0 0.00 0.00 0.00 83 1016.4
20260507082047 62 0 0.0 1.0 0.00 0.00 0.00 83 1016.5
20260507081554 62 0 0.0 1.0 0.00 0.00 0.00 83 1016.1
20260507081047 62 0 0.0 1.0 0.00 0.00 0.00 84 1015.8
20260507080547 62 0 0.0 1.0 0.00 0.00 0.00 83 1016.1
20260507080101 62 0 0.0 2.0 0.00 0.00 0.00 83 1015.8
20260507075547 62 0 0.0 2.0 0.00 0.00 0.00 83 1015.9
20260507075047 62 0 0.0 2.0 0.00 0.00 0.00 83 1016.2
20260507074558 62 0 0.0 3.0 0.00 0.00 0.00 82 1015.7
20260507074046 62 97 0.0 3.0 0.00 0.00 0.00 82 1015.7
20260507073548 62 97 0.0 2.0 0.00 0.00 0.00 82 1015.7
20260507073101 62 0 0.0 2.0 0.00 0.00 0.00 82 1015.8
20260507072547 62 0 0.0 1.0 0.00 0.00 0.00 82 1016.1
20260507072049 62 0 0.0 1.0 0.00 0.00 0.00 82 1015.9
20260507071553 62 97 0.0 1.0 0.00 0.00 0.00 82 1016.0
20260507071046 62 0 0.0 2.0 0.00 0.00 0.00 81 1015.9
20260507070546 62 0 0.0 2.0 0.00 0.00 0.00 81 1015.8
20260507070058 62 0 0.0 2.0 0.00 0.00 0.00 81 1016.0
20260507065545 62 0 0.0 2.0 0.00 0.00 0.00 81 1016.3